This is the latest recevied weather packets stored in our database for station/object N3TTT-13. If no packets are shown the sender has not sent any weather packets the latest 10 day(s).
| Time | Temp. | Humidity | Pressure | Rain* | Wind** | Luminosity | Snow |
|---|---|---|---|---|---|---|---|
| 1777900674 | 16.67° C | 64% | 1015.4 hPa | 0 mm | - | 469 W/m² | - |
| 1777900371 | 17.22° C | 65% | 1015.2 hPa | 0 mm | - | 464 W/m² | - |
| 1777900068 | 16.67° C | 66% | 1015.6 hPa | 0 mm | - | 463 W/m² | - |
| 1777899764 | 16.67° C | 67% | 1015.5 hPa | 0 mm | - | 406 W/m² | - |
| 1777899461 | 16.67° C | 69% | 1015.6 hPa | 0 mm | - | 383 W/m² | - |
| 1777899159 | 16.11° C | 71% | 1015.6 hPa | 0 mm | - | 362 W/m² | - |
| 1777898857 | 16.11° C | 73% | 1015.5 hPa | 0 mm | - | 346 W/m² | - |
| 1777898554 | 15° C | 74% | 1015.6 hPa | 0 mm | - | 336 W/m² | - |
| 1777898251 | 15° C | 75% | 1015.8 hPa | 0 mm | - | 307 W/m² | - |
| 1777897948 | 15° C | 76% | 1015.7 hPa | 0 mm | - | 300 W/m² | - |
| 1777897644 | 15° C | 78% | 1015.8 hPa | 0 mm | - | 269 W/m² | - |
| 1777897340 | 14.44° C | 79% | 1015.7 hPa | 0 mm | - | 244 W/m² | - |
| 1777897036 | 14.44° C | 79% | 1015.9 hPa | 0 mm | - | 246 W/m² | - |
| 1777896734 | 14.44° C | 79% | 1015.6 hPa | 0 mm | - | 230 W/m² | - |
| 1777896430 | 13.89° C | 80% | 1015.7 hPa | 0 mm | - | 220 W/m² | - |
| 1777896128 | 13.89° C | 80% | 1016 hPa | 0 mm | - | 187 W/m² | - |
| 1777895826 | 13.33° C | 81% | 1015.8 hPa | 0 mm | - | 187 W/m² | - |
| 1777895523 | 12.78° C | 82% | 1016.1 hPa | 0 mm | - | 164 W/m² | - |
| 1777895221 | 12.78° C | 82% | 1016 hPa | 0 mm | - | 86 W/m² | - |
| 1777894918 | 13.33° C | 81% | 1015.8 hPa | 0 mm | - | 145 W/m² | - |
| 1777894615 | 12.22° C | 83% | 1016 hPa | 0 mm | - | 150 W/m² | - |
| 1777894312 | 11.67° C | 85% | 1016 hPa | 0 mm | - | 111 W/m² | - |
| 1777894009 | 11.11° C | 86% | 1015.9 hPa | 0 mm | - | 83 W/m² | - |
| 1777893705 | 11.11° C | 86% | 1016 hPa | 0 mm | - | 43 W/m² | - |
| 1777893402 | 10.56° C | 87% | 1016.2 hPa | 0 mm | - | 39 W/m² | - |
* Rain latest hour (hover to see other rain measurements)
** Current wind speed in m/s (hover to see current wind gust speed)